{"data":{"norad_id":56060,"epoch":"2026-05-25T01:00:39.746880Z","epoch_age_seconds":68854,"freshness":"FRESH","line1":"1 56060U 23043Q   26145.04212670  .00000002  00000+0 -26184-4 0  9996","line2":"2 56060  87.9255 248.5780 0001737  99.5494 260.5836 13.21826072155190","mean_motion":13.21826072,"eccentricity":0.0001737,"inclination_deg":87.9255,"raan_deg":248.578,"arg_perigee_deg":99.5494,"mean_anomaly_deg":260.5836,"bstar":-2.6184e-5,"rev_number":15519,"period_min":108.94020253521,"perigee_km":1176.4406358785,"apogee_km":1179.0655520971,"semimajor_km":7555.8900939878,"source":"CELESTRAK","updated_at":"2026-05-25T13:38:22.702786Z"}}